Regional Weather Roundup
Issued by NWS

Home | Current Version | Previous Version | Text Only | Print | Product List | Glossary On
Versions: 1 2 3 4 5 6 7 8 9 10 11 12 13 14 15 16 17 18 19 20 21 22 23 24 25 26 27 28 29 30 31 32 33 34 35 36 37 38 39 40 41 42 43 44 45 46 47 48 49 50
000
ASUS44 KLIX 210807
RWRLA
LOUISIANA WEATHER ROUNDUP
NATIONAL WEATHER SERVICE NEW ORLEANS LA
200 AM CST WED FEB 21 2018

NOTE: "FAIR" INDICATES FEW OR NO CLOUDS BELOW 12,000 FEET WITH NO
      SIGNIFICANT WEATHER AND/OR OBSTRUCTIONS TO VISIBILITY.
      SKY/WX - SKY CONDITION AND SIGNIFICANT WEATHER.
      TMP - AIR TEMPERATURE.    DP   - DEWPOINT TEMPERATURE.
      RH  - RELATIVE HUMIDITY.  PRES - PRESSURE.
      HX  - HEAT INDEX.         WCI  - WIND CHILL INDEX.

*  THESE STATIONS ARE NOT NWS OR FAA STATIONS AND ARE NOT UNDER
   NWS QUALITY CONTROL.

LAZ040-048-061>063-065-066-069-210900-
SOUTHEAST LOUISIANA

CITY           SKY/WX    TMP DP  RH WIND       PRES   REMARKS
N.O. INTL ARPT FAIR      72  72 100 SE8       30.18S
N.O. LAKEFRONT FAIR      73  71  93 SE9       30.19F FOG
N.O. DOWNTOWN* CLOUDY    73  71  93 CALM      30.20S
RESERVE*       CLOUDY    74  71  91 SE6       30.18S FOG
SLIDELL        CLOUDY    72  70  93 SE7       30.19F
BATON ROUGE    CLOUDY    72  69  90 SE8       30.17S
BOOTHVILLE     NOT AVBL
BELLE CHASSE   MOCLDY    72  72 100 SE6       30.18F
BOGALUSA*      CLOUDY    73  69  88 S6        30.21S
GALLIANO*      FAIR      74  70  88 SE3       30.18S
NEW ROADS*     FAIR      70  68  92 SE8       30.17S
GONZALES*      NOT AVBL
HAMMOND*       CLOUDY    70  70 100 SE7       30.19S FOG
HOUMA*         MOCLDY    74  72  93 SE8       30.17S
PORT FOURCHON* SUNNY     73  73 100 SE12      30.18S FOG

$$

LAZ041-044-053-054-210900-
SOUTHWEST LOUISIANA

CITY           SKY/WX    TMP DP  RH WIND       PRES   REMARKS
LAKE CHARLES   CLOUDY    73  71  93 SE9       30.11F
LAFAYETTE      CLOUDY    73  72  96 VRB5      30.15S
PATTERSON      CLOUDY    72  72 100 SE7       30.17R
SALT POINT       N/A     71  69  93 SE8       30.14S
NEW IBERIA     CLOUDY    71  68  90 SE8       30.16S FOG
CHENAULT AIRPK CLOUDY    72  70  95 SE9       30.12F

$$

LAZ027-028-210900-
CENTRAL LOUISIANA

CITY           SKY/WX    TMP DP  RH WIND       PRES   REMARKS
FORT POLK      MOCLDY    72  70  94 S12       30.10S
ALEXANDRIA INT CLOUDY    72  68  87 S12       30.11F
ALEXANDRIA     CLOUDY    72  69  90 SE7       30.13F

$$

LAZ001-002-210900-
NORTHWEST LOUISIANA

CITY           SKY/WX    TMP DP  RH WIND       PRES   REMARKS
SHREVEPORT     CLOUDY    72  69  90 S12       30.06S
BARKSDALE AFB  FAIR      71  67  89 S13       30.06F
DTN SHREVEPORT MOCLDY    73  68  84 MISG      30.06S

$$

LAZ014-016-210900-
NORTHEAST LOUISIANA

CITY           SKY/WX    TMP DP  RH WIND       PRES   REMARKS
MONROE         FAIR      71  66  84 S5        30.13R
TALLULAH       FAIR      69  68  96 S8        30.15F

$$




USA.gov is the U.S. government's official web portal to all federal, state and local government web resources and services.